When you browse on this site, cookies collect data to enhance your experience and personalize the content and advertising you see.
Visit our Privacy Policy to learn more. By continuing to use the site, you agree to this use of cookies and data.
  • In Latvia
  • List of Countries
  • For 7 days
  • Water Temperature
  • Weather Map
  • Weather Widgets
  • user-avatar
    Login

    Hourly Weather Guizhou

    Today, 7 April, Tuesday

    Time Temperature Precipitation Wind Pressure Humidity
    00:00 +11°C° 0 mm 1 mps 666 mmHg 88%
    01:00 +10°C° 0 mm 2 mps 666 mmHg 84%
    02:00 +10°C° 0.1 mm 2 mps 666 mmHg 85%
    03:00 +10°C° 0.1 mm 2 mps 666 mmHg 85%
    04:00 +9°C° 0.1 mm 2 mps 666 mmHg 86%
    05:00 +9°C° 0 mm 2 mps 666 mmHg 84%
    06:00 +11°C° 0 mm 1 mps 666 mmHg 83%
    07:00 +11°C° 0 mm 1 mps 666 mmHg 80%
    08:00 +13°C° 0 mm 1 mps 667 mmHg 72%
    09:00 +15°C° 0 mm 1 mps 667 mmHg 65%
    10:00 +18°C° 0 mm 1 mps 668 mmHg 57%
    11:00 +18°C° 0 mm 1 mps 667 mmHg 56%
    12:00 +19°C° 0 mm 1 mps 667 mmHg 54%
    13:00 +19°C° 0 mm 1 mps 667 mmHg 50%
    14:00 +18°C° 0 mm 2 mps 666 mmHg 55%
    15:00 +17°C° 0 mm 2 mps 665 mmHg 59%
    16:00 +17°C° 0 mm 3 mps 665 mmHg 64%
    17:00 +16°C° 0 mm 3 mps 665 mmHg 68%
    18:00 +14°C° 0 mm 3 mps 665 mmHg 72%
    19:00 +13°C° 0 mm 3 mps 665 mmHg 76%
    20:00 +14°C° 0 mm 2 mps 665 mmHg 78%
    21:00 +13°C° 0 mm 2 mps 666 mmHg 80%
    22:00 +13°C° 0 mm 1 mps 666 mmHg 82%
    23:00 +13°C° 0.2 mm 1 mps 666 mmHg 84%

    Tomorrow, 8 April, Wednesday

    Time Temperature Precipitation Wind Pressure Humidity
    00:00 +13°C° 0.2 mm 2 mps 665 mmHg 85%
    01:00 +12°C° 0.2 mm 2 mps 665 mmHg 86%
    02:00 +12°C° 1.1 mm 2 mps 665 mmHg 89%
    03:00 +12°C° 1.1 mm 2 mps 665 mmHg 91%
    04:00 +12°C° 1.1 mm 2 mps 664 mmHg 94%
    05:00 +12°C° 2.4 mm 2 mps 665 mmHg 93%
    06:00 +11°C° 2.4 mm 3 mps 666 mmHg 93%
    07:00 +11°C° 2.4 mm 3 mps 666 mmHg 93%
    08:00 +11°C° 0.9 mm 3 mps 666 mmHg 92%
    09:00 +12°C° 0.9 mm 2 mps 667 mmHg 91%
    10:00 +12°C° 0.9 mm 2 mps 667 mmHg 90%
    11:00 +12°C° 0.4 mm 2 mps 667 mmHg 89%
    12:00 +12°C° 0.4 mm 2 mps 667 mmHg 88%
    13:00 +13°C° 0.4 mm 2 mps 667 mmHg 87%
    14:00 +13°C° 0 mm 2 mps 666 mmHg 84%
    15:00 +14°C° 0 mm 1 mps 666 mmHg 81%
    16:00 +14°C° 0 mm 1 mps 666 mmHg 79%
    17:00 +14°C° 0 mm 1 mps 666 mmHg 82%
    18:00 +13°C° 0 mm 1 mps 666 mmHg 85%
    19:00 +12°C° 0 mm 1 mps 666 mmHg 88%
    20:00 +11°C° 0 mm 0 mps 666 mmHg 88%
    21:00 +10°C° 0 mm 0 mps 666 mmHg 89%
    22:00 +10°C° 0 mm 0 mps 667 mmHg 90%
    23:00 +10°C° 0 mm 0 mps 666 mmHg 90%

    Day after tomorrow, 9 April, Thursday

    Time Temperature Precipitation Wind Pressure Humidity
    00:00 +11°C° 0 mm 1 mps 666 mmHg 91%
    01:00 +11°C° 0 mm 1 mps 666 mmHg 91%
    02:00 +11°C° 0.1 mm 1 mps 666 mmHg 91%
    03:00 +11°C° 0.1 mm 1 mps 666 mmHg 92%
    04:00 +11°C° 0.1 mm 1 mps 665 mmHg 92%
    05:00 +12°C° 0 mm 1 mps 665 mmHg 91%
    06:00 +12°C° 0 mm 1 mps 666 mmHg 90%
    07:00 +12°C° 0 mm 1 mps 666 mmHg 88%
    08:00 +15°C° 0 mm 2 mps 666 mmHg 82%
    09:00 +17°C° 0 mm 3 mps 667 mmHg 75%
    10:00 +19°C° 0 mm 4 mps 667 mmHg 68%
    11:00 +20°C° 0.1 mm 5 mps 667 mmHg 66%
    12:00 +21°C° 0.1 mm 6 mps 666 mmHg 63%
    13:00 +22°C° 0.1 mm 6 mps 666 mmHg 61%
    14:00 +22°C° 0.1 mm 6 mps 665 mmHg 64%
    15:00 +21°C° 0.1 mm 6 mps 665 mmHg 67%
    16:00 +21°C° 0.1 mm 6 mps 664 mmHg 70%
    17:00 +20°C° 0 mm 5 mps 664 mmHg 76%
    18:00 +17°C° 0 mm 5 mps 664 mmHg 82%
    19:00 +17°C° 0 mm 4 mps 664 mmHg 88%
    20:00 +16°C° 0 mm 5 mps 664 mmHg 89%
    21:00 +16°C° 0 mm 5 mps 664 mmHg 89%
    22:00 +16°C° 0 mm 5 mps 665 mmHg 90%
    23:00 +16°C° 0.2 mm 5 mps 665 mmHg 90%

    10 April, Friday

    Time Temperature Precipitation Wind Pressure Humidity
    00:00 +16°C° 0.2 mm 5 mps 664 mmHg 91%
    01:00 +16°C° 0.2 mm 5 mps 664 mmHg 92%
    02:00 +16°C° 0 mm 5 mps 664 mmHg 93%
    03:00 +16°C° 0 mm 5 mps 664 mmHg 93%
    04:00 +17°C° 0 mm 4 mps 663 mmHg 94%
    05:00 +17°C° 0.1 mm 4 mps 663 mmHg 93%
    06:00 +17°C° 0.1 mm 3 mps 664 mmHg 93%
    07:00 +17°C° 0.1 mm 3 mps 664 mmHg 93%
    08:00 +18°C° 0.1 mm 4 mps 664 mmHg 88%
    09:00 +19°C° 0.1 mm 5 mps 665 mmHg 84%
    10:00 +20°C° 0.1 mm 5 mps 665 mmHg 79%
    11:00 +21°C° 0.1 mm 5 mps 665 mmHg 76%
    12:00 +22°C° 0.1 mm 5 mps 664 mmHg 73%
    13:00 +23°C° 0.1 mm 5 mps 664 mmHg 69%
    14:00 +23°C° 1.2 mm 5 mps 663 mmHg 71%
    15:00 +23°C° 1.2 mm 5 mps 663 mmHg 73%
    16:00 +22°C° 1.2 mm 4 mps 662 mmHg 75%
    17:00 +22°C° 4 mm 4 mps 662 mmHg 78%
    18:00 +21°C° 4 mm 3 mps 662 mmHg 81%
    19:00 +20°C° 4 mm 3 mps 662 mmHg 83%
    20:00 +20°C° 3.3 mm 3 mps 663 mmHg 87%
    21:00 +19°C° 3.3 mm 3 mps 663 mmHg 90%
    22:00 +18°C° 3.3 mm 3 mps 664 mmHg 93%
    23:00 +18°C° 2 mm 2 mps 663 mmHg 94%

    11 April, Saturday

    Time Temperature Precipitation Wind Pressure Humidity
    00:00 +18°C° 2 mm 2 mps 663 mmHg 95%
    01:00 +18°C° 2 mm 1 mps 663 mmHg 96%
    02:00 +18°C° 0.7 mm 1 mps 663 mmHg 96%
    03:00 +18°C° 0.7 mm 1 mps 663 mmHg 96%
    04:00 +18°C° 0.7 mm 1 mps 663 mmHg 96%
    05:00 +19°C° 0.6 mm 1 mps 664 mmHg 95%
    06:00 +19°C° 0.6 mm 1 mps 664 mmHg 94%
    07:00 +19°C° 0.6 mm 1 mps 665 mmHg 94%
    08:00 +17°C° 0.6 mm 2 mps 665 mmHg 92%
    09:00 +17°C° 0.6 mm 3 mps 666 mmHg 91%
    10:00 +17°C° 0.6 mm 4 mps 666 mmHg 89%
    11:00 +17°C° 0.1 mm 4 mps 666 mmHg 88%
    12:00 +15°C° 0.1 mm 5 mps 666 mmHg 87%
    13:00 +15°C° 0.1 mm 6 mps 666 mmHg 86%
    14:00 +14°C° 0 mm 6 mps 666 mmHg 85%
    15:00 +13°C° 0 mm 5 mps 667 mmHg 84%
    16:00 +13°C° 0 mm 5 mps 667 mmHg 83%
    17:00 +12°C° 0 mm 5 mps 667 mmHg 84%
    18:00 +12°C° 0 mm 5 mps 668 mmHg 85%
    19:00 +10°C° 0 mm 5 mps 668 mmHg 86%
    20:00 +11°C° 0 mm 4 mps 669 mmHg 86%
    21:00 +10°C° 0 mm 3 mps 669 mmHg 86%
    22:00 +10°C° 0 mm 3 mps 670 mmHg 86%
    23:00 +10°C° 0 mm 3 mps 669 mmHg 86%

    12 April, Sunday

    Time Temperature Precipitation Wind Pressure Humidity
    00:00 +10°C° 0 mm 2 mps 669 mmHg 86%
    01:00 +10°C° 0 mm 2 mps 669 mmHg 87%
    02:00 +9°C° 0 mm 2 mps 669 mmHg 87%
    03:00 +9°C° 0 mm 2 mps 669 mmHg 87%
    04:00 +9°C° 0 mm 2 mps 669 mmHg 87%
    05:00 +9°C° 0 mm 2 mps 669 mmHg 85%
    06:00 +9°C° 0 mm 2 mps 669 mmHg 83%
    07:00 +9°C° 0 mm 2 mps 669 mmHg 81%
    08:00 +10°C° 0 mm 3 mps 670 mmHg 78%
    09:00 +12°C° 0 mm 3 mps 670 mmHg 75%
    10:00 +13°C° 0 mm 3 mps 671 mmHg 71%
    11:00 +14°C° 0 mm 3 mps 671 mmHg 69%
    12:00 +14°C° 0 mm 3 mps 670 mmHg 67%
    13:00 +16°C° 0 mm 3 mps 670 mmHg 64%
    14:00 +16°C° 0 mm 3 mps 670 mmHg 63%
    15:00 +16°C° 0 mm 3 mps 669 mmHg 62%
    16:00 +16°C° 0 mm 3 mps 669 mmHg 61%
    17:00 +14°C° 0 mm 3 mps 669 mmHg 66%
    18:00 +14°C° 0 mm 2 mps 669 mmHg 70%
    19:00 +13°C° 0 mm 1 mps 669 mmHg 75%
    20:00 +12°C° 0 mm 1 mps 669 mmHg 77%
    21:00 +12°C° 0 mm 1 mps 669 mmHg 79%
    22:00 +10°C° 0 mm 0 mps 670 mmHg 80%
    23:00 +10°C° 0 mm 0 mps 669 mmHg 81%
    Show more